KI7JYE Weather Reports


time (UTC)temp
C
wind
direction
speed
KPH
gust
KPH
rain 1hr
cm
rain 24hr
cm
rain mn
cm
humidity
%
barometer
mb
20260507123547 11 213 1.6 1.6 0.00 0.00 0.00 76 1019.0
20260507123044 11 332 3.2 4.8 0.00 0.00 0.00 76 1019.4
20260507122539 11 268 4.8 8.0 0.00 0.00 0.00 76 1019.4
20260507122035 11 270 4.8 4.8 0.00 0.00 0.00 76 1019.5
20260507121531 11 227 0.0 0.0 0.00 0.00 0.00 76 1019.1
20260507121027 11 19 3.2 8.0 0.00 0.00 0.00 77 1019.4
20260507120523 11 261 1.6 1.6 0.00 0.00 0.00 76 1019.5
20260507120021 11 278 3.2 3.2 0.00 0.00 0.00 76 1019.6
20260507115517 11 295 4.8 8.0 0.00 0.00 0.00 77 1019.5
20260507115013 11 306 3.2 3.2 0.00 0.00 0.00 77 1019.6
20260507114509 11 225 0.0 0.0 0.00 0.00 0.00 77 1019.4
20260507114006 11 242 1.6 1.6 0.00 0.00 0.00 76 1019.6
20260507113503 11 245 1.6 1.6 0.00 0.00 0.00 76 1019.5
20260507113000 11 232 1.6 3.2 0.00 0.00 0.00 76 1019.6
20260507112458 11 237 0.0 0.0 0.00 0.00 0.00 76 1019.8
20260507111954 11 249 1.6 1.6 0.00 0.00 0.00 76 1019.7
20260507111452 11 225 0.0 0.0 0.00 0.00 0.00 76 1019.8
20260507110948 11 321 1.6 3.2 0.00 0.00 0.00 76 1019.7
20260507110444 11 309 4.8 8.0 0.00 0.00 0.00 76 1019.8
20260507105941 11 306 3.2 3.2 0.00 0.00 0.00 76 1019.8
20260507105438 11 275 4.8 8.0 0.00 0.00 0.00 76 1019.7
20260507104934 11 264 3.2 3.2 0.00 0.00 0.00 76 1019.6
20260507104432 11 235 4.8 8.0 0.00 0.00 0.00 76 1019.9
20260507103927 11 165 0.0 1.6 0.00 0.00 0.00 76 1019.9
20260507103424 11 220 0.0 1.6 0.00 0.00 0.00 76 1019.6
20260507102920 11 359 3.2 8.0 0.00 0.00 0.00 76 1019.8
20260507102417 11 31 6.4 9.7 0.00 0.00 0.00 76 1019.7
20260507101914 11 256 1.6 1.6 0.00 0.00 0.00 76 1019.9
20260507101409 11 261 3.2 3.2 0.00 0.00 0.00 76 1019.9
20260507100905 11 278 3.2 3.2 0.00 0.00 0.00 76 1019.8
20260507100403 11 276 4.8 8.0 0.00 0.00 0.00 76 1019.9
20260507095901 11 297 3.2 4.8 0.00 0.00 0.00 76 1020.0
20260507095358 11 300 1.6 1.6 0.00 0.00 0.00 77 1020.0
20260507094855 11 225 0.0 0.0 0.00 0.00 0.00 77 1020.0
20260507094351 11 45 4.8 9.7 0.00 0.00 0.00 77 1020.0
20260507093848 11 236 1.6 3.2 0.00 0.00 0.00 77 1020.2
20260507093347 12 232 0.0 1.6 0.00 0.00 0.00 77 1020.1
20260507092844 12 323 4.8 4.8 0.00 0.00 0.00 77 1020.1
20260507092340 12 235 1.6 3.2 0.00 0.00 0.00 77 1020.1
20260507091837 12 356 3.2 3.2 0.00 0.00 0.00 77 1020.2
20260507091333 12 27 4.8 8.0 0.00 0.00 0.00 76 1020.3
20260507090829 12 203 3.2 4.8 0.00 0.00 0.00 76 1020.3
20260507090326 12 233 3.2 4.8 0.00 0.00 0.00 76 1020.4
20260507085823 12 303 4.8 9.7 0.00 0.00 0.00 76 1020.5
20260507085320 12 233 8.0 9.7 0.00 0.00 0.00 76 1020.3
20260507084817 12 238 0.0 0.0 0.00 0.00 0.00 77 1020.3
20260507084313 12 314 4.8 4.8 0.00 0.00 0.00 77 1020.3
20260507083811 12 266 3.2 3.2 0.00 0.00 0.00 77 1020.3
20260507083307 12 236 0.0 1.6 0.00 0.00 0.00 77 1020.2
20260507082803 12 239 1.6 1.6 0.00 0.00 0.00 78 1020.2
20260507082259 12 224 0.0 0.0 0.00 0.00 0.00 78 1020.3
20260507081756 12 280 0.0 1.6 0.00 0.00 0.00 78 1020.2
20260507081252 12 310 3.2 4.8 0.00 0.00 0.00 78 1020.3
20260507080749 12 246 1.6 1.6 0.00 0.00 0.00 77 1020.1
20260507080245 12 330 4.8 4.8 0.00 0.00 0.00 77 1020.3
20260507075741 12 238 1.6 1.6 0.00 0.00 0.00 77 1020.3
20260507075237 12 233 1.6 1.6 0.00 0.00 0.00 77 1020.4
20260507074733 12 54 1.6 4.8 0.00 0.00 0.00 78 1020.2
20260507074232 12 293 6.4 8.0 0.00 0.00 0.00 77 1020.2
20260507073728 12 350 8.0 11.3 0.00 0.00 0.00 77 1020.3
20260507073225 12 287 4.8 8.0 0.00 0.00 0.00 78 1020.3
20260507072723 12 228 3.2 4.8 0.00 0.00 0.00 78 1020.1
20260507072220 12 309 4.8 8.0 0.00 0.00 0.00 78 1020.2
20260507071717 12 260 6.4 8.0 0.00 0.00 0.00 78 1020.3
20260507071213 12 246 1.6 1.6 0.00 0.00 0.00 77 1020.2
20260507070711 12 286 6.4 8.0 0.00 0.00 0.00 77 1020.0
20260507070207 12 275 3.2 3.2 0.00 0.00 0.00 77 1020.0
20260507065703 12 34 9.7 12.9 0.00 0.00 0.00 78 1020.1
20260507065200 12 299 4.8 8.0 0.00 0.00 0.00 78 1019.9
20260507064658 12 281 6.4 9.7 0.00 0.00 0.00 78 1020.2
20260507064156 12 232 0.0 1.6 0.00 0.00 0.00 78 1019.9
20260507063654 12 237 6.4 9.7 0.00 0.00 0.00 78 1020.2
20260507063150 12 299 8.0 11.3 0.00 0.00 0.00 78 1020.1
20260507062647 12 231 3.2 4.8 0.00 0.00 0.00 78 1020.4
20260507062145 12 287 4.8 4.8 0.00 0.00 0.00 78 1020.1
20260507061643 12 228 1.6 1.6 0.00 0.00 0.00 78 1020.2
20260507061140 12 314 6.4 9.7 0.00 0.00 0.00 78 1020.4
20260507060638 13 312 3.2 4.8 0.00 0.00 0.00 79 1020.2
20260507060134 13 218 0.0 0.0 0.00 0.00 0.00 78 1020.0
20260507055630 13 248 3.2 8.0 0.00 0.00 0.00 79 1020.0
20260507055126 13 295 4.8 4.8 0.00 0.00 0.00 78 1019.9
20260507054622 13 267 1.6 3.2 0.00 0.00 0.00 78 1019.9
20260507054119 13 203 1.6 1.6 0.00 0.00 0.00 78 1019.8
20260507053617 13 197 0.0 1.6 0.00 0.00 0.00 77 1020.0
20260507053115 13 218 1.6 1.6 0.00 0.00 0.00 77 1020.0
20260507052613 14 215 0.0 0.0 0.00 0.00 0.00 77 1020.0
20260507052109 14 232 0.0 0.0 0.00 0.00 0.00 77 1020.0
20260507051607 14 240 1.6 1.6 0.00 0.00 0.00 77 1020.0
20260507051104 14 188 3.2 3.2 0.00 0.00 0.00 76 1019.9
20260507050600 14 221 3.2 3.2 0.00 0.00 0.00 76 1019.9
20260507050057 14 191 4.8 4.8 0.00 0.00 0.00 76 1019.9
20260507045554 14 214 1.6 1.6 0.00 0.00 0.00 76 1020.1
20260507045051 15 135 8.0 9.7 0.00 0.00 0.00 76 1020.0
20260507044547 15 209 0.0 0.0 0.00 0.00 0.00 76 1020.0
20260507044045 15 213 3.2 4.8 0.00 0.00 0.00 77 1019.9
20260507043540 15 242 3.2 3.2 0.00 0.00 0.00 76 1020.1
20260507043038 15 290 4.8 8.0 0.00 0.00 0.00 77 1019.9
20260507042533 15 237 0.0 0.0 0.00 0.00 0.00 78 1019.6
20260507042029 15 236 1.6 1.6 0.00 0.00 0.00 78 1019.7
20260507041526 15 246 0.0 1.6 0.00 0.00 0.00 78 1019.6
20260507041023 15 161 3.2 4.8 0.00 0.00 0.00 78 1019.6
20260507040519 15 192 4.8 4.8 0.00 0.00 0.00 77 1019.5
20260507040015 15 186 3.2 3.2 0.00 0.00 0.00 77 1019.5
20260507035512 15 192 3.2 3.2 0.00 0.00 0.00 76 1019.6
20260507035008 15 170 6.4 8.0 0.00 0.00 0.00 76 1019.5
20260507034505 15 214 1.6 1.6 0.00 0.00 0.00 76 1019.4
20260507034003 15 197 1.6 3.2 0.00 0.00 0.00 76 1019.2
20260507033501 15 207 1.6 1.6 0.00 0.00 0.00 75 1019.2
20260507032958 15 191 3.2 3.2 0.00 0.00 0.00 74 1019.0
20260507032455 15 219 0.0 0.0 0.00 0.00 0.00 74 1019.1
20260507031951 16 206 1.6 3.2 0.00 0.00 0.00 73 1019.2
20260507031448 16 209 0.0 0.0 0.00 0.00 0.00 73 1019.0
20260507030944 16 212 1.6 1.6 0.00 0.00 0.00 73 1018.7
20260507030441 16 215 0.0 0.0 0.00 0.00 0.00 72 1018.9
20260507025938 16 218 0.0 1.6 0.00 0.00 0.00 72 1018.8
20260507025436 16 202 3.2 3.2 0.00 0.00 0.00 71 1019.0
20260507024933 16 231 1.6 1.6 0.00 0.00 0.00 71 1018.7
20260507024431 16 202 1.6 1.6 0.00 0.00 0.00 71 1018.7
20260507023926 17 201 0.0 1.6 0.00 0.00 0.00 70 1018.5
20260507023423 17 209 3.2 3.2 0.00 0.00 0.00 70 1018.5
20260507022920 17 220 1.6 1.6 0.00 0.00 0.00 69 1018.7
20260507022418 17 155 3.2 4.8 0.00 0.00 0.00 69 1018.6
20260507021913 17 177 3.2 4.8 0.00 0.00 0.00 68 1018.6
20260507021408 17 200 1.6 3.2 0.00 0.00 0.00 68 1018.7
20260507020906 18 209 1.6 1.6 0.00 0.00 0.00 67 1018.5
20260507020403 18 197 3.2 3.2 0.00 0.00 0.00 66 1018.5
20260507015900 18 107 4.8 8.0 0.00 0.00 0.00 65 1018.6
20260507015358 18 183 1.6 3.2 0.00 0.00 0.00 65 1018.6
20260507014854 19 229 3.2 3.2 0.00 0.00 0.00 63 1018.8
20260507014351 20 231 0.0 0.0 0.00 0.00 0.00 63 1018.7
20260507013847 20 239 1.6 3.2 0.00 0.00 0.00 63 1018.6
20260507013344 20 222 1.6 1.6 0.00 0.00 0.00 63 1018.5
20260507012842 20 229 0.0 1.6 0.00 0.00 0.00 62 1018.8
20260507012337 20 228 1.6 1.6 0.00 0.00 0.00 62 1018.5
20260507011835 20 225 1.6 1.6 0.00 0.00 0.00 62 1018.4
20260507011332 20 223 1.6 3.2 0.00 0.00 0.00 62 1018.5
20260507010826 20 229 1.6 1.6 0.00 0.00 0.00 62 1018.7
20260507010322 20 230 0.0 1.6 0.00 0.00 0.00 61 1018.7
20260507005819 20 227 0.0 1.6 0.00 0.00 0.00 62 1018.6
20260507005316 21 239 1.6 1.6 0.00 0.00 0.00 60 1018.5
20260507004813 21 252 1.6 3.2 0.00 0.00 0.00 59 1018.5
20260507004310 21 228 4.8 8.0 0.00 0.00 0.00 60 1018.3
20260507003807 21 215 0.0 1.6 0.00 0.00 0.00 60 1018.3
20260507003302 22 246 1.6 1.6 0.00 0.00 0.00 60 1018.2
20260507002758 22 232 1.6 1.6 0.00 0.00 0.00 60 1018.4
20260507002254 22 232 1.6 1.6 0.00 0.00 0.00 59 1018.3
20260507001751 22 226 1.6 1.6 0.00 0.00 0.00 59 1018.5
20260507001249 22 230 0.0 1.6 0.00 0.00 0.00 59 1018.1
20260507000744 22 222 1.6 3.2 0.00 0.00 0.00 60 1018.2
20260507000241 22 226 1.6 1.6 0.00 0.00 0.00 59 1018.4
20260506235738 23 191 0.0 1.6 0.00 0.00 0.00 59 1018.2
20260506235232 23 144 6.4 8.0 0.00 0.00 0.00 58 1018.3
20260506234730 22 228 4.8 4.8 0.00 0.00 0.00 59 1018.2
20260506234227 21 226 0.0 1.6 0.00 0.00 0.00 61 1018.2
20260506233725 21 188 4.8 4.8 0.00 0.00 0.00 62 1018.1
20260506233221 21 144 6.4 9.7 0.00 0.00 0.00 63 1018.4
20260506232718 22 166 8.0 11.3 0.00 0.00 0.00 59 1018.3
20260506232212 21 189 4.8 4.8 0.00 0.00 0.00 61 1018.4
20260506231710 22 254 3.2 3.2 0.00 0.00 0.00 60 1018.3
20260506231209 23 233 0.0 0.0 0.00 0.00 0.00 56 1018.4
20260506230705 24 271 4.8 8.0 0.00 0.00 0.00 55 1018.4
20260506230202 24 261 1.6 3.2 0.00 0.00 0.00 56 1018.5
20260506225658 23 221 3.2 3.2 0.00 0.00 0.00 58 1018.5
20260506225155 22 218 0.0 0.0 0.00 0.00 0.00 60 1018.6
20260506224651 22 207 3.2 3.2 0.00 0.00 0.00 60 1018.6
20260506224148 22 232 1.6 1.6 0.00 0.00 0.00 59 1018.7
20260506223645 21 231 4.8 4.8 0.00 0.00 0.00 62 1018.8
20260506223140 21 234 0.0 1.6 0.00 0.00 0.00 63 1019.0
20260506222638 21 208 3.2 4.8 0.00 0.00 0.00 64 1018.8
20260506222134 21 143 0.0 3.2 0.00 0.00 0.00 65 1018.9
20260506221632 21 220 3.2 4.8 0.00 0.00 0.00 61 1019.0
20260506221130 21 240 0.0 1.6 0.00 0.00 0.00 63 1019.0
20260506220626 21 216 0.0 1.6 0.00 0.00 0.00 63 1018.9
20260506220121 20 224 3.2 3.2 0.00 0.00 0.00 64 1019.0
20260506215618 20 134 1.6 4.8 0.00 0.00 0.00 65 1018.9
20260506215113 21 208 3.2 3.2 0.00 0.00 0.00 64 1018.9
20260506214611 20 229 3.2 8.0 0.00 0.00 0.00 64 1019.0
20260506214108 21 196 3.2 3.2 0.00 0.00 0.00 64 1019.1
20260506213606 20 211 1.6 1.6 0.00 0.00 0.00 65 1018.8
20260506213103 20 77 1.6 1.6 0.00 0.00 0.00 66 1019.2
20260506212600 20 218 4.8 4.8 0.00 0.00 0.00 67 1019.3
20260506212054 20 222 0.0 1.6 0.00 0.00 0.00 64 1019.2
20260506211551 19 221 0.0 0.0 0.00 0.00 0.00 70 1019.4
20260506211048 20 214 4.8 8.0 0.00 0.00 0.00 68 1019.3
20260506210544 20 221 1.6 1.6 0.00 0.00 0.00 67 1019.6
20260506210041 20 199 3.2 3.2 0.00 0.00 0.00 66 1019.6
20260506205538 20 229 1.6 3.2 0.00 0.00 0.00 68 1019.4
20260506205033 18 225 3.2 4.8 0.00 0.00 0.00 72 1019.2
20260506204532 18 193 3.2 3.2 0.00 0.00 0.00 72 1019.3
20260506204028 18 150 8.0 9.7 0.00 0.00 0.00 71 1019.2
20260506203527 18 210 3.2 4.8 0.00 0.00 0.00 74 1019.4
20260506203023 18 129 11.3 16.1 0.00 0.00 0.00 72 1019.4
20260506202520 19 164 4.8 4.8 0.00 0.00 0.00 71 1019.3
20260506202016 20 214 1.6 1.6 0.00 0.00 0.00 67 1019.4
20260506201514 19 231 1.6 3.2 0.00 0.00 0.00 69 1019.3
20260506201010 18 202 3.2 3.2 0.00 0.00 0.00 72 1019.4
20260506200507 18 180 3.2 4.8 0.00 0.00 0.00 72 1019.6
20260506200004 17 211 1.6 1.6 0.00 0.00 0.00 73 1019.7
20260506195501 17 220 1.6 1.6 0.00 0.00 0.00 76 1019.7
20260506194956 17 199 1.6 1.6 0.00 0.00 0.00 76 1019.9
20260506194454 17 253 1.6 3.2 0.00 0.00 0.00 74 1019.8
20260506193950 18 236 0.0 0.0 0.00 0.00 0.00 71 1019.8
20260506193448 18 228 1.6 1.6 0.00 0.00 0.00 71 1020.1
20260506192944 18 233 3.2 3.2 0.00 0.00 0.00 71 1019.9
20260506192442 18 220 3.2 4.8 0.00 0.00 0.00 73 1019.9
20260506191938 18 216 0.0 0.0 0.00 0.00 0.00 73 1020.0
20260506191435 18 210 1.6 1.6 0.00 0.00 0.00 74 1019.9
20260506190931 18 230 1.6 3.2 0.00 0.00 0.00 72 1019.7
20260506190428 18 222 1.6 3.2 0.00 0.00 0.00 73 1019.6
20260506185925 17 234 0.0 0.0 0.00 0.00 0.00 74 1019.8
20260506185422 17 228 3.2 4.8 0.00 0.00 0.00 73 1019.7
20260506184919 18 234 4.8 9.7 0.00 0.00 0.00 69 1019.9
20260506184416 18 215 4.8 8.0 0.00 0.00 0.00 72 1019.7
20260506183914 17 223 4.8 4.8 0.00 0.00 0.00 74 1019.8
20260506183409 18 199 3.2 3.2 0.00 0.00 0.00 72 1019.4
20260506182906 17 221 3.2 3.2 0.00 0.00 0.00 74 1019.6
20260506182403 16 170 6.4 8.0 0.00 0.00 0.00 75 1019.5
20260506181900 17 210 3.2 4.8 0.00 0.00 0.00 72 1019.9
20260506181358 17 217 4.8 4.8 0.00 0.00 0.00 73 1019.9
20260506180855 18 255 4.8 8.0 0.00 0.00 0.00 71 1019.8
20260506180351 17 149 4.8 4.8 0.00 0.00 0.00 75 1019.9
20260506175848 17 231 4.8 4.8 0.00 0.00 0.00 74 1019.9
20260506175345 17 233 3.2 4.8 0.00 0.00 0.00 74 1020.2
20260506174842 16 249 1.6 1.6 0.00 0.00 0.00 76 1019.8
20260506174339 16 228 4.8 4.8 0.00 0.00 0.00 77 1019.7
20260506173837 16 225 0.0 0.0 0.00 0.00 0.00 77 1019.7
20260506173333 16 231 0.0 0.0 0.00 0.00 0.00 78 1019.6
20260506172830 16 233 4.8 4.8 0.00 0.00 0.00 77 1019.5
20260506172327 15 220 0.0 1.6 0.00 0.00 0.00 78 1019.4
20260506171824 15 228 3.2 4.8 0.00 0.00 0.00 81 1019.4
20260506171321 15 226 1.6 1.6 0.00 0.00 0.00 81 1019.7
20260506170819 15 224 0.0 0.0 0.00 0.00 0.00 79 1019.6
20260506170315 15 226 0.0 0.0 0.00 0.00 0.00 79 1019.8
20260506165814 15 236 0.0 0.0 0.00 0.00 0.00 81 1019.8
20260506165311 15 231 0.0 1.6 0.00 0.00 0.00 79 1019.9
20260506164808 15 230 0.0 1.6 0.00 0.00 0.00 81 1019.7
20260506164304 14 238 0.0 1.6 0.00 0.00 0.00 82 1019.8
20260506163801 14 240 1.6 1.6 0.00 0.00 0.00 82 1019.9
20260506163256 14 233 0.0 0.0 0.00 0.00 0.00 82 1019.9
20260506162752 13 255 4.8 4.8 0.00 0.00 0.00 83 1019.7
20260506162250 14 247 0.0 0.0 0.00 0.00 0.00 82 1019.8
20260506161747 13 241 1.6 3.2 0.00 0.00 0.00 83 1019.8
20260506161245 14 227 0.0 0.0 0.00 0.00 0.00 82 1019.6
20260506160742 14 216 0.0 1.6 0.00 0.00 0.00 82 1019.6
20260506160238 13 234 0.0 0.0 0.00 0.00 0.00 83 1019.5
20260506155737 13 222 1.6 1.6 0.00 0.00 0.00 83 1019.4
20260506155233 13 210 1.6 3.2 0.00 0.00 0.00 84 1019.2
20260506153341 13 171 3.2 4.8 0.00 0.00 0.00 86 1019.1
20260506152837 13 205 1.6 1.6 0.00 0.00 0.00 87 1019.2
20260506152335 13 194 0.0 0.0 0.00 0.00 0.00 87 1019.6
20260506151833 12 216 0.0 0.0 0.00 0.00 0.00 88 1019.5
20260506151330 12 226 0.0 0.0 0.00 0.00 0.00 88 1019.7
20260506150827 12 204 1.6 1.6 0.00 0.00 0.00 88 1019.6
20260506150324 12 218 1.6 1.6 0.00 0.00 0.00 88 1019.8
20260506145821 12 228 0.0 0.0 0.00 0.00 0.00 88 1020.0
20260506145317 12 229 0.0 0.0 0.00 0.00 0.00 88 1019.6
20260506144815 12 229 0.0 0.0 0.00 0.00 0.00 89 1019.9
20260506144311 12 237 0.0 0.0 0.00 0.00 0.00 89 1019.7
20260506143809 12 230 0.0 0.0 0.00 0.00 0.00 89 1019.5
20260506143306 12 237 1.6 1.6 0.00 0.00 0.00 89 1019.9
20260506142804 12 248 1.6 1.6 0.00 0.00 0.00 88 1019.1
20260506142305 12 234 0.0 0.0 0.00 0.00 0.00 89 1019.2
20260506141800 12 233 0.0 0.0 0.00 0.00 0.00 89 1018.9
20260506141258 12 237 0.0 0.0 0.00 0.00 0.00 90 1018.7
20260506140755 12 252 0.0 0.0 0.00 0.00 0.00 90 1018.7
20260506140252 12 241 0.0 0.0 0.00 0.00 0.00 90 1018.7
20260506135749 12 221 0.0 0.0 0.00 0.00 0.00 90 1018.7
20260506135245 12 219 0.0 0.0 0.00 0.00 0.00 91 1018.4
20260506134742 12 232 0.0 0.0 0.00 0.00 0.00 91 1018.8
20260506134239 12 231 0.0 0.0 0.00 0.00 0.00 91 1018.5
20260506133736 12 231 0.0 0.0 0.00 0.00 0.00 91 1018.6
20260506133232 12 231 0.0 0.0 0.00 0.00 0.00 91 1018.7
20260506132729 12 229 0.0 0.0 0.00 0.00 0.00 91 1018.3
20260506132226 12 231 1.6 1.6 0.00 0.00 0.00 91 1018.4
20260506131724 12 217 0.0 1.6 0.00 0.00 0.00 91 1018.6
20260506131220 12 229 1.6 1.6 0.00 0.00 0.00 91 1018.5
20260506130717 12 215 0.0 1.6 0.00 0.00 0.00 91 1018.4
20260506130214 12 207 3.2 3.2 0.00 0.00 0.00 91 1018.2
20260506125712 12 196 1.6 3.2 0.00 0.00 0.00 91 1018.3
20260506125210 12 219 1.6 1.6 0.00 0.00 0.00 91 1018.2
20260506124708 12 202 0.0 0.0 0.00 0.00 0.00 91 1018.4
20260506124206 12 225 0.0 0.0 0.00 0.00 0.00 91 1018.3